TimeEDT,TemperatureF,Dew PointF,Humidity,Sea Level PressureIn,VisibilityMPH,Wind Direction,Wind SpeedMPH,Gust SpeedMPH,PrecipitationIn,Events,Conditions,WindDirDegrees,DateUTC
12:15 AM,66.2,64.4,94,29.89,8.0,ENE,3.5,-,N/A,,Overcast,70,2012-09-30 04:15:00
12:24 AM,66.2,64.4,94,29.89,8.0,NNE,3.5,-,N/A,,Overcast,30,2012-09-30 04:24:00
1:42 AM,66.2,64.4,94,29.87,5.0,North,4.6,-,N/A,,Overcast,360,2012-09-30 05:42:00
1:57 AM,66.0,64.9,96,29.89,4.0,North,5.8,-,N/A,,Overcast,350,2012-09-30 05:57:00
2:12 AM,66.2,64.4,94,29.88,2.5,North,5.8,-,N/A,,Overcast,350,2012-09-30 06:12:00
2:20 AM,66.2,64.4,94,29.87,3.0,North,3.5,-,N/A,,Overcast,10,2012-09-30 06:20:00
2:57 AM,66.0,64.0,93,29.89,5.0,North,6.9,-,N/A,,Overcast,350,2012-09-30 06:57:00
3:14 AM,66.2,64.4,94,29.88,5.0,NNW,5.8,-,0.00,Rain,Light Rain,340,2012-09-30 07:14:00
3:57 AM,64.9,64.0,97,29.88,6.0,North,5.8,-,0.00,,Overcast,360,2012-09-30 07:57:00
4:08 AM,64.4,64.4,100,29.87,6.0,North,5.8,-,N/A,,Overcast,360,2012-09-30 08:08:00
4:57 AM,64.0,63.0,96,29.88,5.0,North,3.5,-,N/A,,Overcast,360,2012-09-30 08:57:00
6:57 AM,64.0,62.1,93,29.90,6.0,North,6.9,-,N/A,,Overcast,350,2012-09-30 10:57:00
7:57 AM,63.0,61.0,93,29.90,5.0,North,6.9,-,N/A,,Overcast,350,2012-09-30 11:57:00
8:57 AM,63.0,62.1,97,29.92,5.0,NNE,6.9,-,N/A,,Overcast,20,2012-09-30 12:57:00
9:33 AM,64.4,60.8,88,29.92,6.0,NNE,8.1,-,N/A,,Overcast,20,2012-09-30 13:33:00
9:53 AM,64.4,62.6,94,29.92,8.0,NNE,6.9,-,N/A,,Overcast,20,2012-09-30 13:53:00
10:57 AM,68.0,62.1,81,29.93,10.0,NNE,8.1,-,N/A,,Overcast,20,2012-09-30 14:57:00
11:50 AM,69.8,62.6,78,29.92,10.0,NE,3.5,-,N/A,,Overcast,40,2012-09-30 15:50:00
11:57 AM,69.1,62.1,78,29.93,10.0,Variable,5.8,-,N/A,,Overcast,0,2012-09-30 15:57:00
12:57 PM,71.1,62.1,73,29.92,10.0,North,3.5,-,N/A,,Overcast,10,2012-09-30 16:57:00
1:57 PM,70.0,63.0,78,29.91,10.0,Calm,Calm,-,N/A,,Overcast,0,2012-09-30 17:57:00
2:40 PM,71.6,64.4,78,29.88,10.0,Calm,Calm,-,N/A,,Scattered Clouds,0,2012-09-30 18:40:00
2:57 PM,73.0,64.0,73,29.89,10.0,South,4.6,-,N/A,,Partly Cloudy,170,2012-09-30 18:57:00
4:57 PM,71.1,63.0,75,29.87,10.0,WNW,3.5,-,N/A,,Mostly Cloudy,290,2012-09-30 20:57:00
5:57 PM,70.0,64.0,81,29.87,10.0,Calm,Calm,-,N/A,,Partly Cloudy,0,2012-09-30 21:57:00
6:27 PM,69.8,64.4,83,29.87,10.0,WNW,3.5,-,N/A,,Mostly Cloudy,300,2012-09-30 22:27:00
7:26 PM,68.0,62.6,83,29.88,10.0,NW,3.5,-,N/A,,Mostly Cloudy,320,2012-09-30 23:26:00
9:57 PM,66.9,64.0,90,29.92,6.0,North,3.5,-,0.01,Rain,Light Rain,350,2012-10-01 01:57:00
10:57 PM,66.0,64.0,93,29.93,7.0,North,3.5,-,0.05,Rain,Light Rain,360,2012-10-01 02:57:00